Location: Axtheid
(49.6213°N, 11.8205°E)
Time: 22:31:25
(UTC+00:00)

Envisat - Pass Details

Date: 18 January 2022
Orbit: 764 x 765 km, 98.2° (Epoch: 21 May)

Event Time Altitude Azimuth Distance (km) Brightness Sun altitude
Rises 04:13:05 0° 14° (NNE) 3,243 6.4 -26.7°
Reaches altitude 10° 04:15:24 10° 16° (NNE) 2,312 5.6 -26.4°
Maximum altitude 04:20:31 81° 104° (ESE) 781 3.0 -25.5°
Drops below altitude 10° 04:25:35 10° 192° (SSW) 2,296 5.4 -24.7°
Sets 04:27:53 0° 193° (SSW) 3,218 6.1 -24.3°
